Volver al catálogo

FLOCK 4G 17

ActivoCienciaSSO
NORAD 62681·PAYLOAD·🇺🇸 United States

Lanzado Jan 14, 2025 desde Vandenberg Space Force Base

Loading…

Próximos Pases (próximas 24 horas)

TLE

ActualizadoSource: CelesTrak SupGP

Época: Sep 14, 2026, 16:45 UTC

1 62681C 25009CA  26257.69800926  .00004547  00000+0  15145-3 0  2576
2 62681  97.3869 338.6472 0004760  32.8468 254.5768 15.31164059    11

Sigue FLOCK 4G 17 en tiempo real con AllMySat

Download on the App Store